Mansfield, OH

1:52 PM EDT on June 26, 2017 (GMT -0400)
Mansfield Lahm Regional

Weather History for KMFD - November, 2013

Change the Weather History Date:

Thursday, November 14, 2013

  Actual Average Record
Temperature  
Mean Temperature 40 °F 42 °F  
Max Temperature 49 °F 50 °F 71 °F (1971)
Min Temperature 30 °F 34 °F 11 °F (1986)
Degree Days  
Heating Degree Days 25 23  
Month to date heating degree days 326 288  
Since 1 July heating degree days 842 856  
Cooling Degree Days 0 0  
Month to date cooling degree days 0 0  
Year to date cooling degree days 741 632  
Moisture  
Dew Point 19 °F    
Average Humidity 47    
Maximum Humidity 63    
Minimum Humidity 31    
Precipitation  
Precipitation 0.00 in 0.13 in 3.11 in (1993)
Month to date precipitation 1.13 1.74  
Year to date precipitation 37.72 38.83  
Snow  
Snow 0.00 in 0.00 in - ()
Month to date snowfall 0.2 0.6  
Since 1 July snowfall 0.2 1.1  
Since 1 September snowfall 0.2 1.1  
Snow Depth T in    
Sea Level Pressure  
Sea Level Pressure 30.21 in    
Wind  
Wind Speed 18 mph (SSW)    
Max Wind Speed 24 mph    
Max Gust Speed 32 mph    
Visibility 10 miles    
Events      
T = Trace of Precipitation, MM = Missing Value Source: NWS Daily Summary

Daily Weather History Graph

Daily Weather History Graph

Search for Another Location

Airport or City:

Trip Planner

Search our weather history database for the weather conditions in past years. The results will help you decide how hot, cold, wet, or windy it might be!

Date:

Astronomy

Nov. 14, 2013 Rise Set
Actual Time 7:16 AM EST 5:12 PM EST
Civil Twilight 6:46 AM EST 5:41 PM EST
Nautical Twilight 6:13 AM EST 6:14 PM EST
Astronomical Twilight 5:41 AM EST 6:47 PM EST
Moon 3:33 PM EST (11/14) 4:09 AM EST (11/14)
Length of Visible Light 10h 54m
Length of Day
9h 56m
Waxing Gibbous, 91% of the Moon is Illuminated
Nov 14
Waxing Gibbous
Nov 17
Full
Nov 25
Last Quarter
Dec 2
New
Dec 9
First Quarter

Hourly Weather History & Observations

Time (EST) Temp. Windchill Dew Point Humidity Pressure Visibility Wind Dir Wind Speed Gust Speed Precip Events Conditions
12:52 AM 32.0 °F 20.1 °F 18.0 °F 56% 30.30 in 10.0 mi SSW 19.6 mph 26.5 mph N/A   Clear
1:52 AM 32.0 °F 19.5 °F 18.0 °F 56% 30.29 in 10.0 mi SSW 21.9 mph 27.6 mph N/A   Clear
2:52 AM 32.0 °F 20.1 °F 19.0 °F 59% 30.29 in 10.0 mi SSW 19.6 mph 25.3 mph N/A   Clear
3:52 AM 30.9 °F 19.4 °F 19.0 °F 61% 30.28 in 10.0 mi SSW 17.3 mph 23.0 mph N/A   Clear
4:52 AM 30.9 °F 20.2 °F 19.0 °F 61% 30.28 in 10.0 mi SW 15.0 mph 24.2 mph N/A   Clear
5:52 AM 30.0 °F 19.5 °F 19.0 °F 64% 30.29 in 10.0 mi SW 13.8 mph 27.6 mph N/A   Clear
6:52 AM 30.9 °F 19.8 °F 19.0 °F 61% 30.29 in 10.0 mi SSW 16.1 mph 26.5 mph N/A   Clear
7:52 AM 30.9 °F 20.2 °F 19.9 °F 64% 30.29 in 10.0 mi SSW 15.0 mph 20.7 mph N/A   Clear
8:52 AM 33.1 °F 21.9 °F 19.0 °F 56% 30.28 in 10.0 mi SSW 18.4 mph 27.6 mph N/A   Clear
9:52 AM 37.9 °F 29.2 °F 19.0 °F 47% 30.27 in 10.0 mi SSW 15.0 mph 27.6 mph N/A   Clear
10:52 AM 39.9 °F 30.5 °F 19.0 °F 43% 30.26 in 10.0 mi SSW 19.6 mph 25.3 mph N/A   Clear
11:52 AM 43.0 °F 34.8 °F 19.0 °F 38% 30.23 in 10.0 mi South 18.4 mph 26.5 mph N/A   Clear
12:52 PM 46.0 °F 38.8 °F 19.0 °F 34% 30.20 in 10.0 mi SSW 18.4 mph - N/A   Clear
1:52 PM 46.9 °F - 21.0 °F 36% 30.17 in 10.0 mi SSW 19.6 mph 27.6 mph N/A   Clear
2:52 PM 48.9 °F - 19.9 °F 32% 30.16 in 10.0 mi South 16.1 mph 28.8 mph N/A   Clear
3:52 PM 48.0 °F - 21.0 °F 34% 30.15 in 10.0 mi South 19.6 mph 29.9 mph N/A   Clear
4:52 PM 46.0 °F 39.9 °F 21.0 °F 37% 30.14 in 10.0 mi South 13.8 mph - N/A   Clear
5:52 PM 44.1 °F 35.9 °F 19.9 °F 38% 30.13 in 10.0 mi South 19.6 mph - N/A   Clear
6:52 PM 43.0 °F 34.5 °F 19.9 °F 40% 30.13 in 10.0 mi South 19.6 mph - N/A   Clear
7:52 PM 43.0 °F 34.2 °F 19.9 °F 40% 30.14 in 10.0 mi South 20.7 mph 27.6 mph N/A   Clear
8:52 PM 43.0 °F 34.5 °F 19.9 °F 40% 30.14 in 10.0 mi South 19.6 mph 27.6 mph N/A   Clear
9:52 PM 43.0 °F 35.4 °F 19.9 °F 40% 30.14 in 10.0 mi South 16.1 mph - N/A   Clear
10:52 PM 44.1 °F 35.9 °F 19.0 °F 37% 30.14 in 10.0 mi SSW 19.6 mph - N/A   Clear
11:52 PM 43.0 °F 35.1 °F 19.0 °F 38% 30.14 in 10.0 mi SSW 17.3 mph 27.6 mph N/A   Clear